{"data":{"norad_id":56785,"intl_designator":"2023-078U","name":"STARLINK-5931","alt_names":[],"object_type":"PAYLOAD","status":"ACTIVE","operator":null,"country":"US","launch_date":"2023-05-31","launch_site_code":"AFWTR","launch_vehicle":null,"mission":null,"orbit_class":"UNKNOWN","rcs_meters":null,"size_class":null,"mass_kg":null,"dimensions":null,"purposes":["comms"],"wikipedia_slug":null,"has_3d_model":false,"image_url":null,"decayed_at":null,"tle_current":{"epoch":"2026-09-20T06:31:30.018144Z","epoch_age_seconds":134628,"freshness":"FRESH","line1":"1 56785U 23078U   26263.27187521  .00000489  00000+0  48751-4 0  9992","line2":"2 56785  69.9988 213.9670 0003369 266.4478  93.6296 14.98339675182515","mean_motion":14.98339675,"eccentricity":0.0003369,"inclination_deg":69.9988,"raan_deg":213.967,"arg_perigee_deg":266.4478,"mean_anomaly_deg":93.6296,"bstar":4.8751e-5,"rev_number":18251,"period_min":96.106378548643,"perigee_km":569.68446206075,"apogee_km":574.36748187126,"semimajor_km":6950.162971966,"source":"CELESTRAK","updated_at":"2026-09-21T09:00:33.488697Z"}}}